[[{"header":{"parameterUnit":"m.s-1","parameterCategory":1,"la1":30.2991,"la2":30.254,"lo1":-89.0895,"lo2":-89.0444,"dy":0.0017,"dx":0.0017,"nx":28,"ny":28,"refTime":"2025-08-01T03:00:00:Z","depth":0,"parameterNumber":2,"parameterNumberName":"U-component_of_WINDS"},"data":[0,0,0,0,0,0,0,0,0,0,0,0,0,0,0,0,0,0,0,0,0,0,0,0,0,0,0,0,0,0,0,0,0,0,0,0,0,0,0,0,0,0,0,0,0,0,0,0,0,0,0,0,0,0,0,0,0,0,3.0584,3.0585,0,3.0701,3.0703,3.0704,3.0668,3.0665,3.0663,3.066,3.078,3.0785,3.079,0,0,0,0,0,0,0,0,0,0,0,0,0,3.0327,3.0331,3.0584,3.0585,3.0587,3.0701,3.0703,3.0704,3.0668,3.0665,3.0662,3.0659,3.0778,3.0784,3.0791,0,0,0,0,0,0,0,0,0,0,0,0,0,3.0441,3.0333,3.0584,3.0583,3.0584,3.0701,3.0703,3.0705,3.0669,3.0665,3.0661,3.0658,3.0776,3.0784,3.0792,3.0917,0,0,3.0817,3.082,0,0,0,0,0,0,0,0,3.0434,3.045,3.0581,3.0583,3.0584,3.0666,3.0656,3.0776,3.067,3.0637,3.066,3.0656,3.0745,3.0755,3.0785,3.0922,3.0927,3.0818,3.0823,3.0826,3.0828,0,0,0,0,0,0,0,3.0426,3.0445,3.063,3.0583,3.0585,3.0576,3.0588,3.0678,3.071,3.0639,3.0637,3.0651,3.0745,3.0778,3.0788,3.0929,3.0817,3.0825,3.083,3.0833,3.1171,3.1175,0,0,0,0,0,0,3.0418,3.0438,3.0626,3.0634,3.0499,3.0583,3.0597,3.0644,3.0709,3.0715,3.0654,3.0649,3.0765,3.0778,3.0792,3.094,3.0826,3.0834,3.0838,3.1167,3.1172,3.1176,0,0,0,0,0,0,3.0412,3.0435,3.0622,3.0536,3.0559,3.0592,3.0644,3.0648,3.068,3.072,3.0726,3.0682,3.0763,3.078,3.0885,3.0943,3.0837,3.0845,3.1162,3.1168,3.1174,3.1237,0,0,0,0,0,0,3.0405,3.0433,3.0481,3.0537,3.0563,3.0714,3.0648,3.0653,3.0695,3.0689,3.0748,3.0754,3.0761,3.0873,3.0893,3.0953,3.0851,3.1157,3.1165,3.1172,3.123,3.1245,3.1257,0,0,0,0,0,3.0396,3.0495,3.0484,3.0507,3.0625,3.0717,3.0732,3.0739,3.07,3.0748,3.0773,3.0752,3.0934,3.0884,3.0907,3.0969,3.1153,3.1162,3.1171,3.1224,3.1242,3.1257,0,0,0,0,0,0,3.0445,3.0502,3.0491,3.0611,3.066,3.0711,3.0772,3.0759,3.0819,3.0811,3.0817,3.0831,3.0938,3.0964,3.0908,3.1092,3.1038,3.1052,3.107,3.1088,3.1101,3.1091,3.0858,0,0,0,0,0,3.047,3.0542,3.0587,3.0689,3.0714,3.0739,3.078,3.0781,3.0831,3.0851,3.0885,3.0934,3.1002,3.1047,3.1112,3.1235,3.1245,3.1289,3.1302,3.1313,3.1325,3.1389,3.1407,3.1206,3.1206,3.1206,0,0,3.0523,3.0562,3.0607,3.07,3.0738,3.081,3.0756,3.0836,3.0889,3.0864,3.0963,3.099,3.1045,3.1159,3.121,3.1184,3.1383,3.1325,3.1334,3.1339,3.14,3.1419,3.1436,3.1212,3.1211,3.121,0,0,3.0654,3.0692,3.078,3.0818,3.0876,3.0892,3.0913,3.0967,3.0983,3.1083,3.1065,3.1128,3.1247,3.1286,3.1321,3.1466,3.1448,3.1487,3.1557,3.162,3.1636,3.165,3.1698,3.1716,3.1499,3.1499,3.1499,0,3.0711,3.0819,3.0826,3.0906,3.0947,3.0927,3.1015,3.1052,3.1128,3.1156,3.1126,3.1272,3.1308,3.1429,3.1464,3.1495,3.1517,3.1479,3.1633,3.1647,3.166,3.1707,3.1725,3.1503,3.1503,3.1502,3.1502,0,3.0885,3.0961,3.1024,3.1097,3.1145,3.1229,3.1247,3.1295,3.1292,3.1311,3.1412,3.1455,3.1527,3.1556,3.1555,3.1677,3.1658,3.1631,3.1576,3.1683,3.1727,3.1745,3.1509,3.1508,3.1507,3.1506,0,0,3.1049,3.1125,3.1148,3.1179,3.1242,3.13,3.1382,3.1452,3.1491,3.1545,3.1612,3.1712,3.1686,3.1727,3.1729,3.1785,3.1893,3.175,3.1751,3.1772,3.2026,3.2044,3.2064,3.1882,3.1886,3.1888,3.202,0,3.1183,3.1327,3.1335,3.1465,3.1534,3.1516,3.1587,3.1632,3.1652,3.1712,3.1734,3.1803,3.1766,3.179,3.1844,3.1868,3.1943,3.1859,3.1942,3.1945,3.1926,3.2088,3.2108,3.223,3.2038,3.2041,3.2043,0,3.1358,3.1416,3.1553,3.1603,3.1632,3.1696,3.1759,3.1818,3.1868,3.1879,3.1923,3.1918,3.2,3.1944,3.2057,3.1999,3.2034,3.2051,3.2056,3.2062,3.1998,3.2095,3.2269,3.2286,3.207,3.2068,3.2066,0,3.146,3.1572,3.1668,3.1696,3.1758,3.1803,3.183,3.1877,3.1918,3.1975,3.2001,3.2066,3.2101,3.2151,3.2163,3.2122,3.2275,3.2221,3.2283,3.2283,3.2314,3.2311,3.2493,3.2342,3.2342,3.2341,3.2341,0,3.1606,3.169,3.1714,3.1772,3.1865,3.1873,3.1965,3.1989,3.2031,3.2093,3.2083,3.2141,3.2154,3.2215,3.2225,3.2315,3.2332,3.2341,3.2342,3.234,3.2338,3.2361,3.2351,3.2346,3.2345,3.2344,3.2343,0,3.1735,3.1755,3.1857,3.1907,3.1921,3.1987,3.2029,3.2085,3.2103,3.2182,3.22,3.2229,3.23,3.2317,3.2402,3.2408,3.2514,3.2508,3.2496,3.2495,3.2555,3.2548,3.2756,3.2782,3.2616,3.2618,3.2619,0,3.1825,3.1889,3.1946,3.1986,3.2016,3.2082,3.2124,3.2134,3.2178,3.2239,3.2287,3.2356,3.2412,3.2526,3.2553,3.2617,3.2611,3.268,3.2621,3.2616,3.2608,3.2603,3.2608,3.269,3.2692,3.2693,3.2694,0,3.1983,3.1989,3.205,3.2114,3.2163,3.2214,3.2263,3.2296,3.2314,3.2363,3.2435,3.2478,3.2564,3.2632,3.2696,3.2724,3.2711,3.2713,3.273,3.2727,3.2716,3.272,3.2523,3.2708,3.2706,3.2705,3.2705,3.2704,3.2093,3.2148,3.2195,3.2262,3.23,3.2345,3.2399,3.2424,3.2484,3.2554,3.2557,3.2635,3.2682,3.2767,3.2798,3.2858,3.2837,3.2863,3.2869,3.2874,3.2878,3.271,3.287,3.287,3.287,3.2869,3.2869,0,3.2247,3.2277,3.2339,3.2406,3.2458,3.2443,3.2496,3.254,3.2608,3.2654,3.2708,3.279,3.2856,3.2889,3.2954,3.2995,3.2991,3.3012,3.3007,3.3013,3.2895,3.2872,3.3014,3.3014,3.3014,3.3014,3.3014,3.3014,3.2333,3.2424,3.2436,3.2544,3.2573,3.2649,3.268,3.2721,3.2756,3.2848,3.2902,3.2923,3.2963,3.3031,3.309,3.3098,3.3121,3.3143,3.3148,3.3036,3.3022,3.3007,3.2986,3.3149,3.3149,3.3261,3.3262,3.3263]},{"header":{"parameterUnit":"m.s-1","parameterCategory":1,"la1":30.2991,"la2":30.254,"lo1":-89.0895,"lo2":-89.0444,"dy":0.0017,"dx":0.0017,"nx":28,"ny":28,"refTime":"2025-08-01T03:00:00:Z","depth":0,"parameterNumber":3,"parameterNumberName":"V-component_of_WINDS"},"data":[0,0,0,0,0,0,0,0,0,0,0,0,0,0,0,0,0,0,0,0,0,0,0,0,0,0,0,0,0,0,0,0,0,0,0,0,0,0,0,0,0,0,0,0,0,0,0,0,0,0,0,0,0,0,0,0,0,0,4.1756,4.1757,0,4.1858,4.1859,4.1861,4.1821,4.1819,4.1817,4.1814,4.192,4.1925,4.193,0,0,0,0,0,0,0,0,0,0,0,0,0,4.1526,4.1531,4.1756,4.1757,4.1759,4.1858,4.1859,4.1861,4.1822,4.1819,4.1816,4.1813,4.1918,4.1924,4.193,0,0,0,0,0,0,0,0,0,0,0,0,0,4.1627,4.1532,4.1756,4.1751,4.1752,4.1858,4.1859,4.1861,4.1822,4.1819,4.1815,4.1812,4.1916,4.1923,4.1931,4.2048,0,0,4.1954,4.1957,0,0,0,0,0,0,0,0,4.1621,4.1636,4.1751,4.1752,4.1752,4.1823,4.1817,4.1924,4.1823,4.1796,4.1814,4.181,4.1891,4.19,4.1927,4.2053,4.2057,4.1954,4.1959,4.1962,4.1964,0,0,0,0,0,0,0,4.1615,4.1631,4.1796,4.1752,4.1753,4.1744,4.1754,4.1837,4.1862,4.1798,4.1795,4.1808,4.189,4.192,4.1929,4.2059,4.1954,4.1961,4.1966,4.1968,4.2283,4.2287,0,0,0,0,0,0,4.1607,4.1625,4.1793,4.18,4.1677,4.1751,4.1762,4.1804,4.1861,4.1866,4.1811,4.1806,4.1909,4.192,4.1933,4.2071,4.1962,4.1969,4.1973,4.2279,4.2284,4.2288,0,0,0,0,0,0,4.1602,4.1623,4.1789,4.1712,4.1732,4.1758,4.1806,4.1808,4.1837,4.187,4.1875,4.1836,4.1906,4.1922,4.2019,4.2075,4.1973,4.1979,4.2275,4.2281,4.2286,4.2351,0,0,0,0,0,0,4.1596,4.1621,4.1666,4.1713,4.1737,4.1874,4.1809,4.1813,4.185,4.1845,4.1895,4.19,4.1905,4.2008,4.2026,4.2083,4.1985,4.227,4.2277,4.2284,4.2344,4.2358,4.2371,0,0,0,0,0,4.1588,4.1681,4.1669,4.1689,4.1793,4.1877,4.1891,4.1894,4.1855,4.19,4.1921,4.1899,4.2066,4.2018,4.2039,4.2098,4.2266,4.2275,4.2284,4.2338,4.2356,4.237,0,0,0,0,0,0,4.1641,4.1687,4.1674,4.1785,4.1828,4.1871,4.1928,4.1912,4.1967,4.1959,4.1961,4.1973,4.2072,4.2095,4.2041,4.2213,4.216,4.2173,4.2194,4.2211,4.2224,4.2216,4.1991,0,0,0,0,0,4.1665,4.173,4.1767,4.1861,4.1883,4.1902,4.1939,4.1937,4.1981,4.1999,4.2027,4.2071,4.2132,4.2173,4.2232,4.2347,4.2357,4.2398,4.2412,4.2422,4.2433,4.2494,4.2512,4.2317,4.2316,4.2316,0,0,4.1717,4.175,4.1791,4.1873,4.1905,4.1971,4.1917,4.199,4.2039,4.201,4.2102,4.2125,4.2173,4.2279,4.2327,4.2301,4.249,4.2433,4.2442,4.2447,4.2505,4.2523,4.2539,4.2322,4.2321,4.232,0,0,4.1844,4.1877,4.1958,4.1991,4.2041,4.2052,4.2072,4.2117,4.213,4.2223,4.2202,4.226,4.2367,4.2402,4.2434,4.2572,4.2553,4.2591,4.266,4.2719,4.2734,4.2748,4.2796,4.2813,4.2602,4.2602,4.2603,0,4.1902,4.2001,4.2001,4.2075,4.2111,4.2087,4.2169,4.2201,4.2268,4.2293,4.2263,4.2396,4.2427,4.2539,4.2573,4.26,4.2621,4.2585,4.2732,4.2746,4.2758,4.2804,4.2822,4.2607,4.2606,4.2606,4.2605,0,4.2068,4.2137,4.2196,4.226,4.2303,4.238,4.2392,4.2435,4.2429,4.2444,4.2537,4.2574,4.2639,4.2665,4.2661,4.2777,4.2759,4.2731,4.2677,4.2781,4.2824,4.2841,4.2613,4.2611,4.261,4.2609,0,0,4.2232,4.2294,4.2316,4.2343,4.2395,4.2448,4.2524,4.2587,4.2623,4.2669,4.2732,4.2822,4.2796,4.2832,4.2831,4.2883,4.2988,4.2848,4.2849,4.2871,4.3115,4.3135,4.3155,4.2975,4.2979,4.2982,4.311,0,4.2362,4.2494,4.2496,4.2618,4.268,4.2657,4.2723,4.2762,4.2777,4.2832,4.2848,4.2912,4.2873,4.2894,4.2944,4.2964,4.3036,4.2955,4.3033,4.3035,4.302,4.3178,4.3199,4.3319,4.3127,4.313,4.3132,0,4.2531,4.2582,4.2709,4.275,4.2776,4.2835,4.2892,4.2945,4.2988,4.2995,4.3034,4.3025,4.3101,4.3046,4.315,4.3095,4.3126,4.3141,4.3145,4.3152,4.3089,4.3187,4.3358,4.3375,4.3159,4.3156,4.3155,0,4.2636,4.2736,4.2824,4.2849,4.29,4.2941,4.2964,4.3004,4.304,4.309,4.3114,4.3172,4.3203,4.3248,4.3255,4.3214,4.3359,4.3304,4.3366,4.3366,4.3397,4.3395,4.3574,4.342,4.342,4.3419,4.3419,0,4.278,4.2858,4.2871,4.2926,4.3012,4.3014,4.3099,4.3119,4.3154,4.3211,4.3195,4.3249,4.3255,4.3311,4.3317,4.3401,4.3416,4.3423,4.3423,4.3424,4.3422,4.3444,4.3435,4.3424,4.3423,4.3422,4.3421,0,4.2911,4.2923,4.3018,4.3057,4.3069,4.3131,4.3165,4.3216,4.3229,4.3301,4.3318,4.3339,4.3403,4.3414,4.3491,4.3494,4.3594,4.3587,4.358,4.3578,4.3639,4.3632,4.3837,4.3863,4.3693,4.3695,4.3696,0,4.3002,4.3061,4.3107,4.3143,4.3168,4.3228,4.3265,4.3268,4.3307,4.336,4.3405,4.3467,4.3517,4.3621,4.3642,4.37,4.3693,4.376,4.3701,4.3699,4.3692,4.3688,4.3693,4.3771,4.3773,4.3775,4.3776,0,4.316,4.3163,4.3217,4.3273,4.3317,4.3361,4.3403,4.3434,4.3443,4.3487,4.3552,4.3591,4.3668,4.3729,4.3786,4.381,4.3794,4.3794,4.3811,4.3812,4.3804,4.3807,4.3609,4.379,4.3788,4.3787,4.3786,4.3786,4.3273,4.3324,4.3363,4.3423,4.3454,4.3493,4.3543,4.3562,4.3616,4.3678,4.3677,4.3747,4.3787,4.3862,4.3889,4.3944,4.3922,4.3947,4.3953,4.3959,4.3964,4.3796,4.3954,4.3954,4.3954,4.3953,4.3953,0,4.3429,4.3453,4.3508,4.3566,4.3613,4.3594,4.3639,4.3679,4.3741,4.378,4.3829,4.3902,4.3962,4.3987,4.4046,4.4085,4.4079,4.41,4.4096,4.4101,4.3981,4.396,4.4103,4.4103,4.4103,4.4103,4.4103,4.4103,4.3516,4.36,4.3607,4.3706,4.373,4.3798,4.3825,4.3861,4.3891,4.3974,4.4023,4.4039,4.4072,4.4132,4.4185,4.4191,4.4212,4.4236,4.4239,4.4125,4.411,4.4096,4.4075,4.4241,4.4241,4.4354,4.4355,4.4356]}]]